Вернуться в каталог

FENGYUN 1C DEB

АктивенSSO
NORAD 33623·DEBRIS·🇨🇳 China

Запущен May 10, 1999 с Taiyuan Satellite Launch Center

Loading…

Ближайшие Пролёты (ближайшие 24 часа)

TLE

СвежийSource: Space-Track

Эпоха: Sep 13, 2026, 12:58 UTC

1 33623U 99025DDG 26256.54058252  .00007711  00000-0  22010-2 0  9997
2 33623  98.1995   7.3016 0052353 166.7391 193.5191 14.44609382652865

Отслеживайте FENGYUN 1C DEB в реальном времени с AllMySat

Download on the App Store